QPF
0.03 0.04 0.07 0.13 0.10 0.04 0.04 0.04 0.05 0.06 0.05 0.05 0.06 0.06 0.05 0.05 0.06 0.06 0.10 0.11 0.11 0.12 0.12 0.15 0.19 0.19 0.19 0.19 0.17 0.15 0.13 0.12 0.10 0.11 0.12 0.10 0.05 0.03 0.03 0.05 0.04 0.04 0.03 0.02 0.02 0.03 0.04 0.05 0.06
0.01 0.04 0.09 0.09 0.04 0.02 0.03 0.03 0.05 0.05 0.03 0.03 0.03 0.02 0.02 0.02 0.06 0.06 0.07 0.08 0.08 0.11 0.12 0.11 0.13 0.14 0.13 0.13 0.11 0.09 0.08 0.06 0.07 0.08 0.07 0.05 0.04 0.05 0.05 0.05 0.04 0.03 0.03 0.02 0.03 0.03 0.05 0.05 0.06
0.02 0.06 0.07 0.05 0.02 0.01 0.03 0.05 0.07 0.06 0.05 0.03 0.02 0.01 0.01 0.03 0.04 0.04 0.06 0.06 0.04 0.02 0.05 0.07 0.09 0.09 0.09 0.09 0.09 0.06 0.05 0.04 0.05 0.08 0.07 0.04 0.03 0.04 0.05 0.05 0.05 0.05 0.04 0.03 0.03 0.03 0.04 0.06 0.05
0.02 0.03 0.03 0.02 0.01 0.01 0.02 0.04 0.06 0.09 0.06 0.02 0.01 0.01 0.01 0.02 0.03 0.04 0.06 0.05 0.03 0.03 0.04 0.06 0.07 0.07 0.06 0.05 0.06 0.06 0.05 0.05 0.06 0.06 0.06 0.06 0.05 0.04 0.04 0.04 0.03 0.04 0.04 0.04 0.03 0.03 0.04 0.04 0.05
0.03 0.02 0.01 0.01 0.00 0.00 0.01 0.02 0.03 0.05 0.04 0.02 0.01 0.01 0.01 0.03 0.03 0.02 0.02 0.02 0.02 0.02 0.04 0.06 0.06 0.07 0.06 0.05 0.06 0.06 0.06 0.06 0.06 0.07 0.08 0.07 0.04 0.05 0.04 0.03 0.03 0.05 0.05 0.05 0.04 0.04 0.05 0.04 0.05
0.02 0.01 0.00 0.00 0.01 0.01 0.01 0.02 0.02 0.02 0.01 0.01 0.01 0.01 0.01 0.03 0.02 0.01 0.01 0.02 0.02 0.02 0.04 0.06 0.07 0.07 0.04 0.04 0.04 0.05 0.06 0.04 0.06 0.06 0.07 0.07 0.05 0.04 0.04 0.04 0.05 0.06 0.06 0.05 0.05 0.04 0.04 0.04 0.05
0.01 0.00 0.00 0.00 0.00 0.01 0.01 0.02 0.02 0.01 0.01 0.01 0.00 0.01 0.01 0.02 0.01 0.01 0.01 0.01 0.01 0.03 0.03 0.03 0.04 0.05 0.06 0.04 0.04 0.05 0.04 0.03 0.04 0.04 0.03 0.04 0.04 0.03 0.03 0.03 0.05 0.08 0.07 0.06 0.04 0.03 0.04 0.04 0.05
0.01 0.00 0.00 0.00 0.00 0.01 0.01 0.01 0.01 0.01 0.01 0.00 0.01 0.01 0.01 0.01 0.01 0.00 0.00 0.01 0.01 0.02 0.01 0.01 0.01 0.02 0.02 0.02 0.03 0.04 0.04 0.04 0.04 0.04 0.02 0.02 0.02 0.02 0.02 0.03 0.03 0.06 0.08 0.09 0.05 0.04 0.04 0.04 0.04
0.02 0.00 0.00 0.00 0.00 0.01 0.01 0.01 0.01 0.00 0.00 0.01 0.02 0.02 0.01 0.00 0.01 0.00 0.00 0.00 0.01 0.01 0.00 0.01 0.01 0.01 0.01 0.01 0.02 0.03 0.04 0.04 0.04 0.02 0.02 0.01 0.01 0.00 0.01 0.02 0.03 0.06 0.07 0.09 0.07 0.05 0.04 0.03 0.04
0.01 0.00 0.00 0.00 0.00 0.01 0.01 0.01 0.01 0.01 0.00 0.00 0.01 0.03 0.03 0.01 0.01 0.00 0.00 0.00 0.00 0.01 0.02 0.03 0.02 0.01 0.00 0.01 0.02 0.02 0.03 0.03 0.02 0.01 0.01 0.01 0.00 0.00 0.01 0.02 0.04 0.09 0.09 0.09 0.07 0.06 0.04 0.03 0.02
0.01 0.00 0.00 0.00 0.00 0.00 0.01 0.01 0.01 0.00 0.00 0.00 0.00 0.01 0.02 0.01 0.00 0.00 0.00 0.00 0.00 0.00 0.01 0.02 0.01 0.00 0.00 0.01 0.02 0.02 0.03 0.03 0.02 0.01 0.01 0.00 0.00 0.00 0.00 0.00 0.01 0.08 0.07 0.05 0.05 0.05 0.04 0.02 0.02
0.00 0.00 0.01 0.01 0.01 0.01 0.01 0.01 0.01 0.01 0.00 0.00 0.00 0.00 0.00 0.01 0.01 0.00 0.00 0.00 0.00 0.00 0.01 0.01 0.02 0.01 0.01 0.01 0.02 0.02 0.02 0.02 0.01 0.01 0.00 0.00 0.00 0.00 0.00 0.00 0.01 0.05 0.05 0.04 0.05 0.07 0.04 0.02 0.03
0.01 0.01 0.01 0.01 0.00 0.01 0.01 0.01 0.01 0.01 0.01 0.00 0.00 0.00 0.00 0.00 0.00 0.00 0.00 0.00 0.00 0.00 0.01 0.01 0.01 0.02 0.02 0.01 0.02 0.02 0.02 0.01 0.00 0.00 0.00 0.00 0.00 0.00 0.00 0.00 0.00 0.02 0.04 0.05 0.05 0.09 0.05 0.03 0.04
0.01 0.01 0.01 0.02 0.01 0.01 0.00 0.00 0.00 0.00 0.00 0.01 0.01 0.00 0.00 0.00 0.00 0.00 0.00 0.00 0.00 0.01 0.01 0.01 0.01 0.01 0.02 0.01 0.01 0.01 0.01 0.00 0.00 0.00 0.00 0.00 0.00 0.00 0.00 0.00 0.00 0.02 0.03 0.05 0.07 0.09 0.05 0.05 0.05
0.01 0.01 0.02 0.03 0.02 0.01 0.00 0.00 0.00 0.00 0.01 0.01 0.01 0.00 0.00 0.00 0.00 0.00 0.00 0.00 0.01 0.01 0.01 0.01 0.01 0.01 0.01 0.01 0.01 0.01 0.00 0.00 0.00 0.00 0.00 0.00 0.00 0.00 0.00 0.00 0.00 0.02 0.04 0.05 0.06 0.06 0.04 0.05 0.04
0.01 0.02 0.03 0.03 0.03 0.02 0.00 0.00 0.00 0.00 0.01 0.01 0.01 0.00 0.00 0.00 0.00 0.00 0.00 0.00 0.01 0.01 0.01 0.00 0.01 0.01 0.01 0.00 0.00 0.00 0.00 0.00 0.00 0.00 0.00 0.00 0.00 0.00 0.00 0.00 0.00 0.02 0.04 0.04 0.04 0.04 0.03 0.03 0.03
0.01 0.02 0.02 0.02 0.03 0.02 0.01 0.00 0.00 0.00 0.00 0.01 0.00 0.01 0.00 0.00 0.00 0.00 0.00 0.00 0.00 0.00 0.00 0.00 0.01 0.01 0.01 0.00 0.00 0.00 0.00 0.00 0.00 0.00 0.00 0.00 0.00 0.00 0.00 0.00 0.00 0.01 0.02 0.02 0.03 0.03 0.02 0.02 0.02
0.01 0.01 0.01 0.02 0.02 0.03 0.01 0.00 0.00 0.00 0.00 0.00 0.00 0.00 0.00 0.00 0.00 0.00 0.00 0.00 0.00 0.00 0.00 0.00 0.00 0.01 0.01 0.00 0.00 0.00 0.00 0.00 0.00 0.00 0.00 0.00 0.00 0.00 0.00 0.00 0.00 0.01 0.01 0.01 0.01 0.02 0.01 0.01 0.01
0.01 0.02 0.02 0.02 0.03 0.06 0.03 0.00 0.00 0.01 0.00 0.00 0.00 0.00 0.00 0.00 0.00 0.00 0.01 0.01 0.00 0.00 0.00 0.00 0.00 0.00 0.00 0.00 0.00 0.00 0.00 0.00 0.00 0.00 0.00 0.00 0.00 0.00 0.00 0.00 0.00 0.00 0.00 0.00 0.01 0.01 0.01 0.01 0.01
0.00 0.01 0.01 0.01 0.02 0.05 0.05 0.02 0.01 0.01 0.00 0.00 0.00 0.00 0.00 0.00 0.00 0.00 0.00 0.01 0.01 0.00 0.00 0.00 0.00 0.00 0.00 0.00 0.00 0.00 0.00 0.00 0.00 0.00 0.00 0.00 0.00 0.00 0.00 0.00 0.00 0.00 0.00 0.00 0.00 0.00 0.00 0.01 0.01
0.00 0.00 0.01 0.01 0.02 0.02 0.04 0.03 0.01 0.01 0.01 0.01 0.01 0.01 0.00 0.01 0.01 0.00 0.00 0.00 0.01 0.01 0.00 0.00 0.00 0.00 0.00 0.00 0.00 0.00 0.00 0.00 0.00 0.00 0.00 0.00 0.00 0.00 0.00 0.00 0.00 0.00 0.00 0.00 0.00 0.01 0.01 0.01 0.01
0.01 0.00 0.00 0.01 0.01 0.01 0.02 0.03 0.02 0.01 0.01 0.01 0.01 0.00 0.00 0.01 0.01 0.01 0.00 0.00 0.01 0.01 0.01 0.01 0.00 0.00 0.00 0.00 0.00 0.00 0.00 0.00 0.00 0.00 0.00 0.00 0.00 0.00 0.00 0.00 0.00 0.00 0.00 0.00 0.00 0.01 0.02 0.01 0.01
0.00 0.01 0.01 0.01 0.01 0.01 0.01 0.03 0.02 0.00 0.00 0.00 0.01 0.00 0.00 0.01 0.01 0.01 0.01 0.01 0.01 0.01 0.01 0.01 0.00 0.00 0.00 0.00 0.00 0.00 0.00 0.00 0.00 0.00 0.00 0.00 0.00 0.00 0.00 0.00 0.00 0.00 0.00 0.01 0.01 0.01 0.01 0.01 0.01
0.00 0.01 0.01 0.01 0.01 0.02 0.02 0.02 0.02 0.00 0.00 0.00 0.00 0.01 0.00 0.01 0.01 0.01 0.01 0.01 0.02 0.01 0.01 0.00 0.00 0.00 0.00 0.00 0.00 0.00 0.00 0.00 0.00 0.00 0.00 0.00 0.00 0.00 0.00 0.00 0.00 0.01 0.01 0.01 0.01 0.00 0.00 0.01 0.01
0.00 0.01 0.01 0.01 0.01 0.01 0.01 0.01 0.01 0.01 0.00 0.00 0.00 0.00 0.00 0.00 0.01 0.01 0.01 0.02 0.02 0.02 0.01 0.01 0.00 0.00 0.00 0.00 0.00 0.00 0.00 0.00 0.00 0.00 0.00 0.00 0.00 0.00 0.00 0.00 0.01 0.01 0.01 0.00 0.00 0.00 0.01 0.01 0.01
0.01 0.00 0.00 0.00 0.00 0.00 0.01 0.01 0.00 0.00 0.00 0.01 0.01 0.00 0.00 0.01 0.01 0.02 0.02 0.02 0.02 0.01 0.01 0.01 0.00 0.00 0.00 0.00 0.00 0.00 0.00 0.00 0.00 0.00 0.00 0.00 0.00 0.00 0.00 0.00 0.00 0.01 0.01 0.00 0.00 0.01 0.01 0.01 0.00
0.01 0.00 0.00 0.00 0.00 0.00 0.00 0.00 0.00 0.00 0.00 0.00 0.00 0.00 0.00 0.01 0.01 0.02 0.02 0.02 0.02 0.02 0.01 0.01 0.01 0.00 0.00 0.00 0.00 0.00 0.00 0.01 0.01 0.00 0.00 0.00 0.00 0.00 0.00 0.00 0.00 0.01 0.01 0.01 0.01 0.01 0.01 0.01 0.01
0.01 0.01 0.01 0.01 0.00 0.01 0.01 0.00 0.00 0.00 0.00 0.00 0.00 0.00 0.00 0.01 0.00 0.01 0.01 0.01 0.01 0.01 0.01 0.01 0.01 0.00 0.00 0.00 0.00 0.00 0.00 0.00 0.00 0.00 0.00 0.00 0.00 0.00 0.00 0.00 0.00 0.01 0.01 0.01 0.01 0.00 0.00 0.00 0.01
0.01 0.01 0.01 0.00 0.01 0.01 0.01 0.00 0.00 0.00 0.00 0.00 0.00 0.01 0.01 0.01 0.01 0.00 0.00 0.00 0.01 0.01 0.01 0.01 0.01 0.01 0.01 0.00 0.00 0.00 0.00 0.00 0.00 0.00 0.00 0.00 0.00 0.00 0.00 0.00 0.00 0.00 0.00 0.00 0.01 0.01 0.00 0.00 0.01
0.01 0.01 0.01 0.01 0.00 0.01 0.00 0.00 0.00 0.00 0.00 0.00 0.01 0.01 0.01 0.01 0.01 0.01 0.00 0.00 0.00 0.00 0.00 0.01 0.01 0.01 0.01 0.01 0.00 0.00 0.00 0.00 0.00 0.00 0.00 0.00 0.00 0.00 0.00 0.00 0.00 0.01 0.00 0.00 0.00 0.01 0.01 0.00 0.01
MSLP
1010.19 1011.28 1012.54 1013.83 1014.99 1015.91 1016.52 1016.82 1016.85 1016.69 1016.48 1016.29 1016.19 1016.20 1016.29 1016.40 1016.44 1016.36 1016.11 1015.70 1015.17 1014.58 1014.01 1013.54 1013.20 1013.01 1012.95 1012.97 1013.03 1013.08 1013.12 1013.11 1013.10 1013.09 1013.11 1013.17 1013.28 1013.42 1013.57 1013.73 1013.88 1014.02 1014.14 1014.27 1014.41 1014.56 1014.71 1014.87 1015.02
1010.69 1011.96 1013.35 1014.68 1015.80 1016.61 1017.06 1017.16 1017.00 1016.70 1016.37 1016.11 1015.99 1016.00 1016.12 1016.25 1016.32 1016.26 1016.04 1015.64 1015.13 1014.56 1014.02 1013.56 1013.24 1013.06 1013.00 1013.03 1013.10 1013.17 1013.22 1013.25 1013.26 1013.28 1013.31 1013.37 1013.46 1013.57 1013.69 1013.81 1013.94 1014.06 1014.19 1014.33 1014.48 1014.64 1014.80 1014.96 1015.10
1011.32 1012.74 1014.19 1015.50 1016.52 1017.18 1017.45 1017.38 1017.07 1016.65 1016.25 1015.97 1015.85 1015.89 1016.03 1016.19 1016.27 1016.22 1015.99 1015.61 1015.11 1014.56 1014.04 1013.61 1013.32 1013.16 1013.12 1013.15 1013.23 1013.31 1013.38 1013.43 1013.46 1013.48 1013.51 1013.56 1013.62 1013.69 1013.78 1013.87 1013.98 1014.10 1014.25 1014.41 1014.59 1014.78 1014.97 1015.13 1015.28
1012.07 1013.55 1014.99 1016.22 1017.12 1017.61 1017.71 1017.49 1017.08 1016.60 1016.18 1015.92 1015.83 1015.90 1016.07 1016.23 1016.32 1016.26 1016.02 1015.64 1015.15 1014.63 1014.15 1013.75 1013.49 1013.35 1013.32 1013.36 1013.44 1013.53 1013.60 1013.65 1013.69 1013.71 1013.73 1013.76 1013.79 1013.84 1013.89 1013.97 1014.08 1014.22 1014.39 1014.59 1014.81 1015.03 1015.24 1015.42 1015.58
1012.87 1014.35 1015.71 1016.82 1017.55 1017.88 1017.84 1017.52 1017.05 1016.56 1016.18 1015.96 1015.93 1016.05 1016.23 1016.40 1016.47 1016.39 1016.14 1015.76 1015.29 1014.80 1014.36 1014.01 1013.78 1013.67 1013.64 1013.68 1013.75 1013.82 1013.88 1013.92 1013.95 1013.97 1013.98 1014.00 1014.01 1014.04 1014.09 1014.17 1014.28 1014.45 1014.65 1014.89 1015.14 1015.39 1015.62 1015.81 1015.96
1013.64 1015.04 1016.28 1017.22 1017.79 1017.98 1017.84 1017.47 1017.00 1016.56 1016.25 1016.12 1016.15 1016.30 1016.49 1016.65 1016.69 1016.59 1016.33 1015.96 1015.52 1015.08 1014.69 1014.39 1014.20 1014.10 1014.07 1014.09 1014.13 1014.17 1014.21 1014.23 1014.25 1014.26 1014.27 1014.29 1014.30 1014.34 1014.39 1014.48 1014.62 1014.81 1015.04 1015.30 1015.57 1015.83 1016.06 1016.24 1016.37
1014.29 1015.56 1016.64 1017.40 1017.82 1017.90 1017.70 1017.34 1016.93 1016.59 1016.38 1016.34 1016.43 1016.61 1016.80 1016.93 1016.94 1016.81 1016.54 1016.19 1015.79 1015.41 1015.09 1014.84 1014.69 1014.60 1014.57 1014.56 1014.56 1014.56 1014.56 1014.56 1014.56 1014.57 1014.60 1014.62 1014.66 1014.71 1014.79 1014.90 1015.05 1015.26 1015.50 1015.77 1016.04 1016.28 1016.48 1016.63 1016.74
1014.76 1015.87 1016.76 1017.36 1017.65 1017.66 1017.46 1017.16 1016.85 1016.63 1016.53 1016.58 1016.73 1016.92 1017.09 1017.18 1017.15 1016.99 1016.72 1016.40 1016.06 1015.75 1015.50 1015.32 1015.20 1015.13 1015.08 1015.04 1014.99 1014.94 1014.90 1014.87 1014.87 1014.89 1014.93 1014.99 1015.05 1015.13 1015.23 1015.36 1015.53 1015.73 1015.97 1016.21 1016.46 1016.66 1016.83 1016.94 1017.01
1015.03 1015.96 1016.67 1017.12 1017.32 1017.30 1017.14 1016.93 1016.76 1016.67 1016.69 1016.82 1017.00 1017.19 1017.32 1017.35 1017.27 1017.08 1016.82 1016.53 1016.26 1016.03 1015.86 1015.75 1015.68 1015.63 1015.56 1015.49 1015.39 1015.30 1015.22 1015.17 1015.16 1015.19 1015.26 1015.34 1015.44 1015.56 1015.68 1015.82 1015.98 1016.17 1016.38 1016.59 1016.78 1016.95 1017.06 1017.13 1017.17
1015.15 1015.89 1016.44 1016.77 1016.91 1016.90 1016.81 1016.72 1016.68 1016.72 1016.84 1017.03 1017.22 1017.38 1017.45 1017.42 1017.28 1017.07 1016.81 1016.57 1016.36 1016.22 1016.13 1016.09 1016.07 1016.04 1015.97 1015.87 1015.74 1015.61 1015.50 1015.43 1015.42 1015.46 1015.55 1015.67 1015.80 1015.94 1016.08 1016.22 1016.37 1016.53 1016.69 1016.86 1017.00 1017.12 1017.20 1017.23 1017.25
1015.19 1015.77 1016.17 1016.41 1016.52 1016.55 1016.55 1016.57 1016.65 1016.80 1017.00 1017.21 1017.40 1017.50 1017.51 1017.40 1017.21 1016.97 1016.72 1016.50 1016.36 1016.29 1016.29 1016.32 1016.35 1016.34 1016.28 1016.18 1016.03 1015.88 1015.75 1015.67 1015.66 1015.71 1015.81 1015.95 1016.10 1016.25 1016.39 1016.53 1016.66 1016.79 1016.91 1017.03 1017.14 1017.22 1017.27 1017.29 1017.30
1015.27 1015.70 1015.99 1016.17 1016.26 1016.33 1016.40 1016.53 1016.70 1016.93 1017.17 1017.39 1017.53 1017.58 1017.51 1017.34 1017.09 1016.81 1016.56 1016.38 1016.28 1016.28 1016.34 1016.43 1016.51 1016.54 1016.51 1016.41 1016.27 1016.12 1015.98 1015.89 1015.88 1015.92 1016.03 1016.17 1016.33 1016.48 1016.63 1016.75 1016.86 1016.96 1017.06 1017.15 1017.23 1017.29 1017.34 1017.37 1017.40
1015.46 1015.78 1015.99 1016.12 1016.21 1016.30 1016.44 1016.62 1016.86 1017.12 1017.37 1017.56 1017.66 1017.64 1017.50 1017.26 1016.96 1016.66 1016.41 1016.24 1016.18 1016.21 1016.32 1016.46 1016.59 1016.67 1016.67 1016.60 1016.49 1016.34 1016.21 1016.12 1016.10 1016.13 1016.23 1016.36 1016.51 1016.65 1016.79 1016.90 1017.00 1017.09 1017.17 1017.25 1017.33 1017.40 1017.46 1017.52 1017.58
1015.84 1016.08 1016.22 1016.31 1016.39 1016.50 1016.65 1016.86 1017.11 1017.36 1017.59 1017.74 1017.78 1017.71 1017.51 1017.23 1016.90 1016.58 1016.32 1016.15 1016.10 1016.15 1016.29 1016.46 1016.63 1016.75 1016.80 1016.78 1016.70 1016.59 1016.47 1016.38 1016.34 1016.36 1016.42 1016.53 1016.65 1016.78 1016.91 1017.02 1017.12 1017.21 1017.29 1017.39 1017.48 1017.58 1017.68 1017.78 1017.88
1016.40 1016.56 1016.65 1016.71 1016.77 1016.87 1017.01 1017.21 1017.43 1017.64 1017.82 1017.91 1017.91 1017.79 1017.57 1017.27 1016.93 1016.60 1016.34 1016.17 1016.11 1016.16 1016.30 1016.49 1016.68 1016.84 1016.95 1016.98 1016.95 1016.87 1016.77 1016.68 1016.62 1016.60 1016.63 1016.69 1016.78 1016.89 1017.01 1017.12 1017.23 1017.34 1017.45 1017.57 1017.70 1017.83 1017.97 1018.12 1018.26
1017.05 1017.16 1017.22 1017.25 1017.29 1017.36 1017.46 1017.61 1017.76 1017.91 1018.02 1018.06 1018.02 1017.88 1017.66 1017.38 1017.06 1016.75 1016.49 1016.31 1016.24 1016.27 1016.39 1016.58 1016.78 1016.98 1017.13 1017.21 1017.23 1017.19 1017.11 1017.02 1016.93 1016.87 1016.85 1016.87 1016.92 1017.01 1017.11 1017.24 1017.36 1017.50 1017.64 1017.80 1017.96 1018.13 1018.32 1018.51 1018.69
1017.69 1017.78 1017.82 1017.83 1017.85 1017.88 1017.93 1018.00 1018.08 1018.14 1018.17 1018.16 1018.10 1017.97 1017.78 1017.54 1017.27 1017.00 1016.76 1016.59 1016.50 1016.50 1016.59 1016.75 1016.96 1017.17 1017.35 1017.49 1017.55 1017.55 1017.49 1017.39 1017.27 1017.17 1017.09 1017.06 1017.07 1017.13 1017.24 1017.37 1017.52 1017.69 1017.87 1018.05 1018.24 1018.45 1018.66 1018.89 1019.10
1018.21 1018.30 1018.35 1018.37 1018.38 1018.38 1018.37 1018.36 1018.33 1018.30 1018.25 1018.19 1018.11 1018.00 1017.87 1017.71 1017.52 1017.32 1017.13 1016.97 1016.86 1016.84 1016.89 1017.01 1017.20 1017.41 1017.62 1017.79 1017.90 1017.93 1017.88 1017.77 1017.63 1017.48 1017.35 1017.27 1017.25 1017.29 1017.38 1017.53 1017.70 1017.90 1018.10 1018.31 1018.52 1018.74 1018.97 1019.22 1019.46
1018.53 1018.65 1018.74 1018.80 1018.83 1018.82 1018.76 1018.66 1018.53 1018.39 1018.25 1018.13 1018.04 1017.97 1017.91 1017.84 1017.76 1017.65 1017.52 1017.40 1017.29 1017.24 1017.24 1017.33 1017.48 1017.69 1017.90 1018.10 1018.23 1018.29 1018.26 1018.15 1017.98 1017.79 1017.62 1017.50 1017.44 1017.46 1017.56 1017.71 1017.90 1018.11 1018.33 1018.54 1018.76 1018.98 1019.21 1019.46 1019.73
1018.63 1018.82 1018.99 1019.13 1019.21 1019.21 1019.11 1018.93 1018.69 1018.43 1018.18 1017.99 1017.87 1017.83 1017.84 1017.88 1017.91 1017.92 1017.88 1017.81 1017.72 1017.65 1017.62 1017.66 1017.78 1017.96 1018.17 1018.37 1018.53 1018.61 1018.60 1018.49 1018.31 1018.10 1017.90 1017.75 1017.67 1017.68 1017.77 1017.92 1018.12 1018.34 1018.55 1018.76 1018.95 1019.16 1019.37 1019.62 1019.89
1018.55 1018.84 1019.14 1019.39 1019.56 1019.58 1019.46 1019.20 1018.83 1018.43 1018.06 1017.77 1017.61 1017.57 1017.65 1017.79 1017.94 1018.07 1018.14 1018.14 1018.09 1018.02 1017.97 1017.97 1018.05 1018.19 1018.39 1018.60 1018.77 1018.87 1018.88 1018.79 1018.62 1018.41 1018.19 1018.02 1017.93 1017.93 1018.01 1018.17 1018.36 1018.57 1018.77 1018.95 1019.12 1019.28 1019.47 1019.69 1019.96
1018.38 1018.81 1019.27 1019.67 1019.93 1020.00 1019.85 1019.49 1019.00 1018.44 1017.91 1017.50 1017.25 1017.20 1017.31 1017.54 1017.82 1018.07 1018.25 1018.35 1018.35 1018.30 1018.24 1018.21 1018.25 1018.37 1018.55 1018.75 1018.94 1019.07 1019.11 1019.05 1018.90 1018.70 1018.49 1018.32 1018.22 1018.21 1018.29 1018.44 1018.63 1018.82 1019.00 1019.14 1019.27 1019.38 1019.52 1019.70 1019.95
1018.24 1018.84 1019.47 1020.01 1020.38 1020.48 1020.29 1019.84 1019.19 1018.44 1017.74 1017.17 1016.83 1016.73 1016.85 1017.15 1017.53 1017.92 1018.22 1018.42 1018.49 1018.48 1018.42 1018.38 1018.39 1018.48 1018.64 1018.84 1019.04 1019.20 1019.28 1019.27 1019.16 1018.99 1018.80 1018.64 1018.54 1018.53 1018.60 1018.73 1018.91 1019.08 1019.23 1019.34 1019.42 1019.48 1019.56 1019.70 1019.90
1018.22 1018.98 1019.77 1020.45 1020.90 1021.02 1020.78 1020.21 1019.39 1018.45 1017.55 1016.81 1016.34 1016.18 1016.30 1016.65 1017.13 1017.63 1018.06 1018.36 1018.52 1018.56 1018.53 1018.48 1018.47 1018.53 1018.67 1018.87 1019.10 1019.29 1019.42 1019.45 1019.40 1019.27 1019.12 1018.97 1018.88 1018.85 1018.91 1019.03 1019.19 1019.34 1019.47 1019.55 1019.59 1019.60 1019.63 1019.70 1019.85
1018.34 1019.25 1020.18 1020.96 1021.46 1021.57 1021.25 1020.55 1019.56 1018.42 1017.33 1016.43 1015.84 1015.60 1015.71 1016.10 1016.67 1017.28 1017.82 1018.24 1018.48 1018.58 1018.58 1018.53 1018.51 1018.56 1018.68 1018.89 1019.12 1019.35 1019.53 1019.62 1019.62 1019.54 1019.42 1019.29 1019.20 1019.17 1019.22 1019.32 1019.46 1019.60 1019.72 1019.78 1019.79 1019.77 1019.75 1019.76 1019.84
1018.58 1019.60 1020.62 1021.45 1021.96 1022.03 1021.62 1020.79 1019.63 1018.33 1017.07 1016.03 1015.34 1015.04 1015.15 1015.57 1016.21 1016.91 1017.57 1018.08 1018.42 1018.58 1018.61 1018.58 1018.55 1018.59 1018.70 1018.90 1019.16 1019.41 1019.63 1019.78 1019.83 1019.79 1019.70 1019.59 1019.50 1019.47 1019.49 1019.59 1019.71 1019.85 1019.96 1020.03 1020.04 1020.00 1019.95 1019.91 1019.93
1018.87 1019.94 1020.99 1021.82 1022.29 1022.29 1021.80 1020.84 1019.57 1018.14 1016.77 1015.64 1014.88 1014.56 1014.66 1015.12 1015.82 1016.60 1017.35 1017.95 1018.37 1018.59 1018.66 1018.64 1018.62 1018.64 1018.75 1018.95 1019.21 1019.49 1019.74 1019.93 1020.02 1020.02 1019.96 1019.86 1019.77 1019.72 1019.74 1019.81 1019.94 1020.08 1020.21 1020.30 1020.33 1020.31 1020.25 1020.19 1020.15
1019.09 1020.16 1021.17 1021.95 1022.35 1022.27 1021.69 1020.67 1019.33 1017.85 1016.44 1015.28 1014.51 1014.19 1014.31 1014.80 1015.55 1016.39 1017.20 1017.87 1018.35 1018.62 1018.73 1018.73 1018.72 1018.74 1018.84 1019.03 1019.29 1019.59 1019.86 1020.08 1020.20 1020.23 1020.18 1020.09 1020.00 1019.94 1019.95 1020.02 1020.15 1020.31 1020.47 1020.60 1020.68 1020.70 1020.67 1020.61 1020.55
1019.15 1020.15 1021.07 1021.75 1022.06 1021.91 1021.28 1020.23 1018.89 1017.44 1016.07 1014.96 1014.24 1013.95 1014.11 1014.63 1015.40 1016.28 1017.12 1017.83 1018.35 1018.66 1018.80 1018.83 1018.83 1018.86 1018.96 1019.15 1019.41 1019.71 1019.99 1020.22 1020.37 1020.42 1020.39 1020.30 1020.21 1020.15 1020.15 1020.23 1020.37 1020.56 1020.77 1020.96 1021.10 1021.18 1021.20 1021.17 1021.12
1018.99 1019.86 1020.65 1021.21 1021.42 1021.21 1020.57 1019.56 1018.30 1016.95 1015.70 1014.70 1014.06 1013.84 1014.03 1014.57 1015.35 1016.22 1017.06 1017.78 1018.31 1018.65 1018.82 1018.89 1018.91 1018.96 1019.08 1019.27 1019.54 1019.84 1020.13 1020.37 1020.53 1020.60 1020.58 1020.52 1020.44 1020.38 1020.38 1020.47 1020.63 1020.85 1021.10 1021.35 1021.57 1021.73 1021.82 1021.84 1021.82
Thickness
5799 5798 5795 5783 5761 5743 5737 5744 5751 5750 5751 5757 5760 5757 5750 5744 5740 5736 5753 5761 5762 5762 5762 5762 5762 5761 5760 5759 5758 5757 5756 5755 5753 5752 5751 5750 5749 5749 5748 5748 5747 5747 5746 5746 5745 5745 5745 5746 5746
5798 5796 5786 5769 5745 5728 5734 5747 5748 5750 5756 5759 5759 5756 5750 5746 5750 5750 5754 5758 5760 5760 5759 5759 5759 5758 5758 5757 5756 5754 5753 5752 5750 5749 5748 5747 5746 5745 5744 5744 5744 5743 5742 5742 5742 5741 5742 5742 5742
5798 5794 5773 5755 5739 5730 5737 5747 5750 5755 5760 5758 5752 5751 5747 5744 5750 5751 5755 5757 5757 5757 5757 5756 5756 5755 5755 5754 5752 5751 5750 5749 5747 5746 5745 5744 5743 5742 5741 5740 5740 5739 5739 5738 5738 5738 5738 5738 5738
5792 5779 5765 5747 5736 5741 5746 5750 5753 5753 5756 5756 5750 5743 5746 5751 5752 5753 5755 5755 5754 5754 5753 5753 5753 5752 5751 5750 5749 5748 5747 5745 5744 5743 5741 5741 5740 5739 5738 5737 5736 5735 5735 5735 5734 5734 5734 5734 5734
5785 5766 5747 5735 5737 5745 5750 5754 5755 5751 5748 5749 5747 5738 5739 5749 5753 5753 5753 5752 5750 5750 5750 5750 5749 5749 5748 5747 5745 5744 5743 5742 5741 5739 5738 5738 5737 5736 5735 5734 5733 5732 5731 5731 5730 5730 5730 5730 5731
5768 5757 5733 5726 5735 5744 5750 5754 5752 5748 5746 5747 5744 5736 5736 5746 5748 5748 5749 5748 5748 5747 5747 5746 5746 5745 5744 5743 5742 5741 5740 5739 5738 5737 5736 5735 5734 5733 5732 5731 5730 5729 5728 5727 5727 5727 5727 5727 5728
5760 5746 5732 5731 5732 5739 5748 5754 5748 5744 5742 5743 5745 5733 5734 5741 5745 5746 5746 5744 5744 5744 5743 5742 5742 5741 5740 5739 5738 5737 5736 5736 5735 5734 5733 5732 5731 5730 5729 5727 5726 5726 5725 5724 5723 5723 5723 5724 5724
5765 5747 5734 5731 5732 5736 5749 5751 5749 5745 5742 5748 5746 5732 5730 5739 5743 5743 5741 5740 5740 5740 5739 5739 5738 5737 5736 5735 5735 5734 5734 5733 5732 5731 5730 5729 5728 5727 5726 5724 5723 5723 5722 5721 5720 5720 5720 5720 5721
5767 5738 5727 5732 5734 5739 5748 5745 5747 5750 5744 5743 5743 5740 5740 5742 5740 5737 5734 5734 5734 5735 5735 5735 5734 5734 5733 5732 5732 5731 5731 5730 5729 5728 5727 5726 5725 5724 5723 5722 5721 5720 5719 5718 5717 5717 5717 5718 5718
5754 5732 5738 5746 5746 5744 5745 5743 5743 5740 5735 5733 5734 5737 5740 5738 5735 5731 5729 5728 5729 5730 5731 5732 5731 5731 5731 5730 5729 5729 5728 5727 5727 5726 5725 5723 5722 5721 5720 5719 5718 5717 5716 5715 5714 5714 5715 5715 5715
5753 5741 5747 5751 5752 5750 5744 5742 5743 5735 5728 5731 5731 5731 5733 5732 5730 5728 5727 5727 5727 5728 5729 5730 5730 5729 5728 5728 5727 5726 5726 5725 5725 5724 5723 5721 5720 5719 5717 5716 5715 5714 5713 5712 5712 5712 5711 5712 5712
5750 5748 5751 5751 5753 5749 5744 5741 5737 5735 5734 5739 5737 5734 5731 5728 5726 5726 5725 5726 5726 5726 5727 5728 5728 5727 5727 5726 5725 5725 5724 5723 5723 5722 5721 5719 5718 5716 5715 5714 5712 5711 5711 5710 5709 5709 5709 5709 5708
5746 5745 5749 5750 5749 5746 5742 5737 5734 5732 5735 5737 5734 5730 5727 5726 5726 5726 5727 5726 5725 5725 5726 5726 5727 5726 5725 5725 5724 5723 5723 5722 5721 5720 5719 5718 5716 5714 5713 5712 5710 5709 5708 5708 5707 5706 5706 5705 5705
5745 5744 5743 5744 5744 5743 5735 5732 5731 5728 5732 5730 5727 5724 5724 5724 5724 5724 5724 5723 5723 5724 5724 5725 5725 5724 5724 5723 5722 5721 5721 5720 5720 5719 5718 5716 5715 5713 5711 5710 5708 5707 5706 5706 5704 5704 5703 5702 5702
5746 5736 5734 5736 5737 5735 5732 5721 5724 5729 5729 5724 5722 5721 5721 5722 5723 5723 5723 5723 5723 5723 5723 5723 5723 5723 5722 5721 5721 5719 5719 5719 5718 5717 5716 5715 5714 5712 5710 5708 5707 5705 5704 5703 5702 5701 5701 5699 5699
5735 5723 5714 5726 5732 5731 5724 5709 5723 5728 5724 5718 5718 5717 5718 5720 5721 5723 5723 5723 5723 5722 5722 5722 5723 5721 5720 5719 5718 5718 5717 5717 5716 5715 5715 5714 5713 5711 5709 5707 5705 5704 5702 5701 5700 5699 5697 5695 5694
5716 5707 5708 5717 5728 5726 5719 5711 5721 5725 5721 5715 5715 5714 5715 5716 5719 5722 5723 5723 5722 5721 5721 5720 5720 5719 5718 5717 5716 5715 5715 5714 5714 5714 5713 5713 5712 5710 5708 5705 5703 5702 5701 5700 5699 5696 5695 5692 5691
5705 5705 5707 5709 5721 5720 5713 5712 5718 5721 5719 5714 5713 5712 5713 5714 5718 5721 5722 5722 5721 5720 5719 5718 5717 5716 5715 5714 5713 5713 5712 5712 5712 5712 5712 5711 5710 5709 5707 5705 5702 5701 5700 5698 5697 5694 5693 5691 5690
5715 5709 5705 5710 5722 5716 5710 5710 5714 5717 5716 5713 5711 5711 5712 5714 5719 5720 5721 5720 5718 5717 5716 5716 5715 5714 5713 5712 5710 5709 5708 5708 5709 5710 5710 5710 5709 5708 5707 5704 5702 5700 5698 5697 5696 5694 5691 5689 5689
5713 5706 5704 5710 5718 5714 5707 5707 5714 5716 5716 5716 5714 5713 5713 5714 5715 5717 5717 5717 5716 5715 5714 5714 5714 5713 5713 5712 5710 5708 5707 5707 5707 5708 5708 5708 5708 5708 5706 5704 5702 5700 5698 5696 5695 5694 5690 5688 5688
5710 5705 5705 5704 5709 5710 5705 5700 5707 5715 5718 5718 5718 5717 5716 5715 5714 5714 5715 5715 5715 5714 5713 5714 5713 5712 5712 5711 5709 5708 5707 5706 5705 5705 5706 5706 5707 5707 5706 5704 5702 5700 5699 5696 5695 5694 5692 5688 5687
5703 5715 5712 5706 5695 5688 5696 5680 5700 5707 5710 5714 5716 5715 5716 5717 5717 5715 5715 5714 5714 5715 5715 5714 5712 5711 5711 5710 5709 5707 5704 5702 5702 5703 5704 5705 5706 5706 5705 5704 5702 5700 5699 5697 5696 5695 5693 5691 5687
5710 5717 5711 5703 5693 5685 5687 5680 5690 5703 5704 5711 5717 5718 5718 5718 5718 5717 5717 5716 5716 5716 5714 5713 5712 5710 5710 5709 5709 5706 5703 5702 5702 5703 5703 5703 5704 5704 5704 5703 5702 5700 5699 5698 5697 5695 5694 5693 5690
5715 5706 5697 5688 5681 5671 5683 5677 5684 5697 5708 5716 5720 5721 5721 5720 5719 5719 5718 5716 5714 5714 5713 5712 5710 5709 5709 5708 5707 5706 5704 5702 5701 5701 5701 5701 5702 5702 5702 5702 5701 5700 5699 5698 5697 5696 5695 5694 5693
5706 5686 5667 5665 5659 5664 5682 5679 5688 5713 5720 5723 5724 5724 5724 5722 5720 5717 5715 5714 5713 5712 5711 5711 5709 5707 5707 5707 5706 5706 5704 5703 5702 5701 5701 5700 5700 5700 5701 5701 5700 5699 5699 5698 5697 5696 5695 5694 5693
5697 5689 5665 5656 5654 5662 5677 5676 5699 5721 5726 5728 5729 5727 5725 5722 5720 5719 5718 5716 5714 5713 5711 5710 5708 5707 5706 5706 5705 5705 5704 5703 5702 5702 5701 5701 5700 5700 5701 5700 5700 5699 5699 5698 5697 5696 5694 5693 5693
5691 5684 5686 5668 5665 5660 5667 5682 5704 5722 5723 5725 5725 5724 5722 5722 5721 5720 5718 5716 5715 5713 5712 5711 5708 5706 5706 5705 5705 5704 5704 5703 5702 5702 5702 5701 5701 5701 5700 5700 5699 5698 5698 5697 5696 5694 5693 5692 5691
5699 5687 5673 5665 5654 5652 5665 5675 5687 5709 5715 5719 5720 5720 5721 5722 5720 5719 5718 5717 5715 5714 5713 5711 5709 5707 5706 5705 5705 5705 5703 5703 5703 5702 5701 5701 5701 5701 5700 5699 5698 5697 5696 5695 5694 5693 5692 5691 5689
5687 5682 5674 5664 5662 5652 5652 5672 5706 5711 5716 5717 5719 5721 5721 5721 5720 5719 5718 5717 5715 5713 5712 5710 5708 5706 5705 5705 5704 5703 5703 5702 5702 5701 5701 5701 5700 5700 5699 5698 5696 5695 5694 5694 5693 5691 5690 5689 5688
5692 5684 5673 5662 5658 5656 5654 5672 5716 5716 5719 5719 5719 5721 5721 5721 5720 5719 5717 5715 5713 5711 5710 5709 5708 5707 5706 5705 5703 5702 5702 5701 5700 5700 5700 5700 5700 5699 5698 5697 5695 5694 5693 5692 5691 5690 5688 5687 5686